| time (UTC) | temp C | wind direction | speed KPH | gust KPH | rain 1hr cm | rain 24hr cm | rain mn cm | humidity % | barometer mb |
| 20260502233056 | 11 | 103 | 3.2 | 11.3 | 0.00 | 0.20 | 0.00 | 1 | 1008.8 |
| 20260502231549 | 11 | 87 | 4.8 | 12.9 | 0.00 | 0.20 | 0.00 | 1 | 1008.8 |
| 20260502230045 | 11 | 108 | 9.7 | 12.9 | 0.00 | 0.20 | 0.00 | 1 | 1008.8 |
| 20260502224540 | 11 | 116 | 6.4 | 11.3 | 0.03 | 0.20 | 0.20 | 1 | 1008.9 |
| 20260502223035 | 11 | 102 | 9.7 | 16.1 | 0.03 | 0.20 | 0.20 | 1 | 1008.9 |
| 20260502221532 | 11 | 122 | 4.8 | 12.9 | 0.03 | 0.20 | 0.20 | 1 | 1009.0 |
| 20260502220030 | 11 | 130 | 3.2 | 12.9 | 0.03 | 0.20 | 0.20 | 1 | 1009.0 |
| 20260502214522 | 11 | 132 | 6.4 | 12.9 | 0.00 | 0.18 | 0.18 | 1 | 1009.0 |
| 20260502213020 | 11 | 123 | 6.4 | 11.3 | 0.00 | 0.18 | 0.18 | 1 | 1009.0 |
| 20260502211514 | 11 | 131 | 4.8 | 17.7 | 0.00 | 0.18 | 0.18 | 1 | 1009.0 |
| 20260502210009 | 11 | 128 | 9.7 | 14.5 | 0.00 | 0.18 | 0.18 | 1 | 1009.0 |
| 20260502204514 | 11 | 97 | 4.8 | 12.9 | 0.00 | 0.18 | 0.18 | 1 | 1009.0 |
| 20260502203100 | 11 | 132 | 4.8 | 9.7 | 0.00 | 0.18 | 0.18 | 1 | 1009.1 |
| 20260502201559 | 11 | 97 | 4.8 | 12.9 | 0.00 | 0.18 | 0.18 | 1 | 1009.0 |
| 20260502200056 | 11 | 94 | 9.7 | 17.7 | 0.03 | 0.18 | 0.18 | 1 | 1009.1 |
| 20260502194548 | 11 | 121 | 6.4 | 16.1 | 0.03 | 0.18 | 0.18 | 1 | 1009.0 |
| 20260502193046 | 11 | 101 | 12.9 | 19.3 | 0.03 | 0.18 | 0.18 | 1 | 1009.1 |
| 20260502191539 | 11 | 103 | 12.9 | 19.3 | 0.03 | 0.18 | 0.18 | 1 | 1009.1 |
| 20260502190036 | 11 | 104 | 4.8 | 12.9 | 0.00 | 0.15 | 0.15 | 1 | 1009.0 |
| 20260502184536 | 11 | 75 | 4.8 | 14.5 | 0.00 | 0.15 | 0.15 | 1 | 1009.0 |
| 20260502183026 | 11 | 85 | 4.8 | 9.7 | 0.03 | 0.15 | 0.15 | 1 | 1009.1 |
| 20260502181522 | 11 | 66 | 4.8 | 14.5 | 0.08 | 0.15 | 0.15 | 1 | 1009.2 |
| 20260502163100 | 11 | 107 | 6.4 | 14.5 | 0.03 | 0.05 | 0.05 | 1 | 1009.6 |
| 20260502161554 | 11 | 93 | 11.3 | 24.1 | 0.00 | 0.03 | 0.03 | 1 | 1009.6 |
| 20260502151537 | 11 | 121 | 9.7 | 16.1 | 0.00 | 0.03 | 0.03 | 1 | 1010.3 |
| 20260502130107 | 12 | 128 | 6.4 | 16.1 | 0.00 | 0.00 | 0.00 | 1 | 1011.5 |
| 20260502123054 | 12 | 120 | 16.1 | 29.0 | 0.00 | 0.00 | 0.00 | 1 | 1011.9 |
| 20260502121538 | 12 | 127 | 14.5 | 25.7 | 0.00 | 0.00 | 0.00 | 1 | 1012.0 |
| 20260502114530 | 12 | 151 | 12.9 | 22.5 | 0.00 | 0.00 | 0.00 | 1 | 1012.2 |
| 20260502113025 | 12 | 145 | 12.9 | 17.7 | 0.00 | 0.00 | 0.00 | 1 | 1012.3 |
| 20260502111520 | 12 | 127 | 11.3 | 24.1 | 0.00 | 0.00 | 0.00 | 1 | 1012.3 |
| 20260502110016 | 12 | 141 | 14.5 | 25.7 | 0.00 | 0.00 | 0.00 | 1 | 1012.4 |
| 20260502104516 | 12 | 160 | 16.1 | 22.5 | 0.00 | 0.00 | 0.00 | 1 | 1012.4 |
| 20260502103007 | 12 | 175 | 17.7 | 27.4 | 0.00 | 0.00 | 0.00 | 1 | 1012.3 |
| 20260502101503 | 12 | 120 | 8.0 | 20.9 | 0.00 | 0.00 | 0.00 | 1 | 1012.3 |
| 20260502071511 | 11 | 126 | 9.7 | 16.1 | 0.00 | 0.00 | 0.00 | 1 | 1013.1 |
| 20260502070008 | 11 | 116 | 11.3 | 17.7 | 0.00 | 0.00 | 0.00 | 1 | 1013.1 |
| 20260502064509 | 11 | 170 | 12.9 | 20.9 | 0.00 | 0.00 | 0.00 | 1 | 1013.2 |
| 20260502063120 | 11 | 147 | 11.3 | 19.3 | 0.00 | 0.00 | 0.00 | 1 | 1013.2 |
| 20260502061555 | 11 | 155 | 6.4 | 12.9 | 0.00 | 0.00 | 0.00 | 1 | 1013.1 |
| 20260502060050 | 11 | 110 | 3.2 | 12.9 | 0.00 | 0.00 | 0.00 | 1 | 1013.1 |
| 20260502054547 | 11 | 134 | 6.4 | 16.1 | 0.00 | 0.00 | 0.00 | 1 | 1013.0 |
| 20260502053052 | 11 | 145 | 11.3 | 17.7 | 0.00 | 0.00 | 0.00 | 1 | 1013.1 |
| 20260502051537 | 11 | 213 | 8.0 | 12.9 | 0.00 | 0.00 | 0.00 | 1 | 1013.2 |
| 20260502050032 | 11 | 132 | 3.2 | 11.3 | 0.00 | 0.00 | 0.00 | 1 | 1013.3 |
| 20260502044528 | 11 | 143 | 8.0 | 14.5 | 0.00 | 0.03 | 0.00 | 1 | 1013.3 |
| 20260502043024 | 11 | 145 | 6.4 | 16.1 | 0.00 | 0.03 | 0.00 | 1 | 1013.4 |
| 20260502041520 | 11 | 148 | 8.0 | 19.3 | 0.00 | 0.03 | 0.00 | 1 | 1013.4 |
| 20260502040015 | 11 | 173 | 11.3 | 20.9 | 0.00 | 0.03 | 0.00 | 1 | 1013.6 |
| 20260502034511 | 11 | 149 | 9.7 | 16.1 | 0.00 | 0.03 | 0.00 | 1 | 1013.7 |
| 20260502033011 | 11 | 133 | 3.2 | 12.9 | 0.00 | 0.03 | 0.00 | 1 | 1013.8 |
| 20260502031503 | 11 | 178 | 6.4 | 16.1 | 0.00 | 0.03 | 0.00 | 1 | 1013.9 |
| 20260502030058 | 11 | 153 | 6.4 | 14.5 | 0.00 | 0.03 | 0.00 | 1 | 1014.0 |
| 20260502024604 | 11 | 140 | 8.0 | 17.7 | 0.00 | 0.03 | 0.00 | 1 | 1014.1 |
| 20260502023049 | 11 | 134 | 12.9 | 20.9 | 0.00 | 0.03 | 0.00 | 1 | 1014.1 |
| 20260502021545 | 11 | 178 | 4.8 | 14.5 | 0.00 | 0.03 | 0.00 | 1 | 1014.3 |
| 20260502020042 | 11 | 147 | 4.8 | 12.9 | 0.00 | 0.03 | 0.00 | 1 | 1014.4 |
| 20260502014538 | 11 | 142 | 4.8 | 11.3 | 0.00 | 0.03 | 0.00 | 1 | 1014.7 |
| 20260502013034 | 11 | 168 | 4.8 | 12.9 | 0.00 | 0.03 | 0.00 | 1 | 1015.0 |
| 20260502011528 | 11 | 152 | 8.0 | 14.5 | 0.00 | 0.03 | 0.00 | 1 | 1015.1 |
| 20260502010023 | 11 | 137 | 9.7 | 16.1 | 0.00 | 0.03 | 0.00 | 1 | 1015.2 |
| 20260502004519 | 11 | 145 | 9.7 | 16.1 | 0.00 | 0.03 | 0.00 | 1 | 1015.4 |
| 20260502003016 | 11 | 145 | 4.8 | 14.5 | 0.00 | 0.03 | 0.00 | 1 | 1015.6 |
| 20260502001512 | 11 | 151 | 3.2 | 14.5 | 0.00 | 0.03 | 0.00 | 1 | 1015.5 |
| 20260502000007 | 11 | 156 | 9.7 | 16.1 | 0.00 | 0.03 | 0.00 | 1 | 1015.6 |
| 20260501234501 | 11 | 161 | 6.4 | 14.5 | 0.00 | 0.03 | 0.00 | 1 | 1015.7 |